Date,TemperatureHighF,TemperatureAvgF,TemperatureLowF,DewpointHighF,DewpointAvgF,DewpointLowF,HumidityHigh,HumidityAvg,HumidityLow,PressureMaxIn,PressureMinIn,WindSpeedMaxMPH,WindSpeedAvgMPH,GustSpeedMaxMPH,PrecipitationSumIn
2013-1-1,28,24,17,25,19,8,92,80,66,0.00,40.00,14,10,30,0.00
2013-1-2,21,16,13,13,10,8,85,76,65,0.00,40.00,11,8,20,0.00
2013-1-3,24,18,10,19,11,6,87,76,58,0.00,40.00,12,7,22,0.00
2013-1-4,28,23,22,19,17,14,88,76,61,0.00,40.00,17,13,31,0.00
2013-1-5,29,23,21,21,18,14,90,80,64,0.00,40.00,18,9,31,0.01
2013-1-6,32,29,26,27,24,19,90,80,73,0.00,40.00,12,7,21,0.01
2013-1-7,34,28,23,28,24,20,96,82,62,0.00,40.00,12,8,19,0.05
2013-1-8,42,32,24,24,21,19,88,65,42,0.00,40.00,13,8,20,0.21
2013-1-9,43,35,30,35,27,22,79,71,62,0.00,40.00,19,11,32,0.20
2013-1-10,42,34,29,26,24,23,79,67,48,0.00,40.00,19,8,35,0.01
2013-1-11,36,32,30,33,28,22,100,84,68,0.00,40.00,13,9,24,0.31
2013-1-12,49,43,33,49,43,33,100,100,97,0.00,40.00,12,7,17,0.06
2013-1-13,47,42,37,46,42,37,100,100,97,0.00,40.00,13,10,20,0.02
2013-1-14,50,37,27,50,32,20,100,83,58,0.00,40.00,15,8,27,0.18
2013-1-15,30,26,21,22,20,19,94,79,66,0.00,40.00,7,4,15,0.02
2013-1-16,30,26,24,30,25,21,99,96,82,0.00,40.00,9,6,16,0.00
2013-1-17,29,27,25,26,24,21,96,90,85,0.00,40.00,11,8,25,0.00
2013-1-18,26,19,12,21,7,2,92,61,38,0.00,40.00,14,9,27,0.05
2013-1-19,48,37,22,20,10,3,52,33,28,0.00,40.00,15,13,33,0.10
2013-1-20,43,30,15,26,13,3,63,50,30,0.00,40.00,21,14,44,0.02
2013-1-21,19,15,8,15,8,-1,86,74,58,0.00,40.00,13,8,29,0.00
2013-1-22,9,4,-1,-1,-7,-14,79,62,45,0.00,40.00,15,11,26,0.00
2013-1-23,10,2,-2,1,-5,-9,82,72,55,0.00,40.00,12,8,21,0.00
2013-1-24,15,7,2,2,-2,-6,82,67,43,0.00,40.00,12,8,25,0.00
2013-1-25,9,5,2,4,-1,-5,85,75,51,0.00,40.00,12,5,22,0.00
2013-1-26,21,13,6,13,8,2,86,81,66,0.00,40.00,8,6,15,0.00
2013-1-27,31,20,13,13,9,7,83,63,37,0.00,40.00,10,6,17,0.12
2013-1-28,42,28,21,42,25,9,100,90,60,0.00,40.00,16,10,30,0.28
2013-1-29,51,44,42,51,44,42,100,100,100,0.00,40.00,12,9,24,0.22
2013-1-30,53,47,42,53,47,42,100,100,100,0.00,40.00,14,10,28,1.23
2013-1-31,49,23,16,49,15,7,100,73,58,0.00,40.00,19,13,42,1.54